This is the latest recevied weather packets stored in our database for station/object KC8JWT. If no packets are shown the sender has not sent any weather packets the latest 1 day(s).
| Time | Temp. | Humidity | Pressure | Rain* | Wind** | Luminosity | Snow |
|---|---|---|---|---|---|---|---|
| 1778053697 | 14.44° C | 99% | 1007 hPa | 10.67 mm | - | 0 W/m² | - |
| 1778053092 | 15° C | 99% | 1007 hPa | 4.32 mm | - | 0 W/m² | - |
| 1778052486 | 15° C | 99% | 1007.6 hPa | 13.72 mm | - | 0 W/m² | - |
| 1778052184 | 15° C | 98% | 1007.5 hPa | 7.87 mm | - | 0 W/m² | - |
| 1778051881 | 15° C | 97% | 1007.7 hPa | 3.05 mm | - | 0 W/m² | - |
| 1778051276 | 15° C | 96% | 1006.8 hPa | 0 mm | - | 0 W/m² | - |
| 1778050973 | 15.56° C | 95% | 1006.7 hPa | 0 mm | - | 0 W/m² | - |
| 1778050368 | 15.56° C | 93% | 1006.9 hPa | 3.05 mm | - | 0 W/m² | - |
| 1778050064 | 15° C | 94% | 1006.9 hPa | 0 mm | - | 0 W/m² | - |
| 1778049760 | 15° C | 96% | 1006.6 hPa | 0 mm | - | 0 W/m² | - |
| 1778049458 | 15° C | 99% | 1006.6 hPa | 0 mm | - | 0 W/m² | - |
| 1778048550 | 15° C | 99% | 1006.8 hPa | 0 mm | - | 0 W/m² | - |
| 1778048246 | 15° C | 99% | 1006.5 hPa | 0 mm | - | 0 W/m² | - |
| 1778047642 | 15° C | 99% | 1006.9 hPa | 0 mm | - | 0 W/m² | - |
| 1778047035 | 15° C | 99% | 1006.8 hPa | 0 mm | - | 0 W/m² | - |
| 1778045823 | 15° C | 98% | 1007.1 hPa | 0 mm | - | 0 W/m² | - |
| 1778045219 | 15° C | 97% | 1007.5 hPa | 0 mm | - | 0 W/m² | - |
| 1778044917 | 15° C | 97% | 1007.3 hPa | 0 mm | - | 0 W/m² | - |
| 1778044311 | 15.56° C | 97% | 1007.6 hPa | 0 mm | - | 0 W/m² | - |
| 1778044009 | 15.56° C | 97% | 1007.9 hPa | 0 mm | - | 0 W/m² | - |
| 1778043706 | 15° C | 97% | 1007.8 hPa | 1.78 mm | - | 0 W/m² | - |
| 1778043402 | 15° C | 97% | 1008.3 hPa | 1.78 mm | - | 0 W/m² | - |
| 1778042797 | 15° C | 97% | 1008 hPa | 0 mm | - | 0 W/m² | - |
| 1778042190 | 15.56° C | 98% | 1008.1 hPa | 0 mm | - | 0 W/m² | - |
| 1778041889 | 15.56° C | 98% | 1008 hPa | 0 mm | - | 0 W/m² | - |
* Rain latest hour (hover to see other rain measurements)
** Current wind speed in m/s (hover to see current wind gust speed)